{"data":{"norad_id":65734,"intl_designator":"2025-216A","name":"STARLINK-34086","alt_names":[],"object_type":"PAYLOAD","status":"ACTIVE","operator":null,"country":"US","launch_date":"2025-09-25","launch_site_code":"AFETR","launch_vehicle":null,"mission":null,"orbit_class":"UNKNOWN","rcs_meters":null,"size_class":null,"mass_kg":null,"dimensions":null,"purposes":["comms"],"wikipedia_slug":null,"has_3d_model":false,"image_url":null,"decayed_at":null,"tle_current":{"epoch":"2026-09-20T09:25:29.976384Z","epoch_age_seconds":117832,"freshness":"FRESH","line1":"1 65734U 25216A   26263.39270806  .00012597  00000+0  38329-3 0  9996","line2":"2 65734  53.1580 146.3859 0001281  82.8978 277.2170 15.34403292 56403","mean_motion":15.34403292,"eccentricity":0.0001281,"inclination_deg":53.158,"raan_deg":146.3859,"arg_perigee_deg":82.8978,"mean_anomaly_deg":277.217,"bstar":0.00038329,"rev_number":5640,"period_min":93.847556734778,"perigee_km":461.81714532546,"apogee_km":463.56976608822,"semimajor_km":6840.8304557068,"source":"CELESTRAK","updated_at":"2026-09-21T09:00:35.691188Z"}}}